Weather History for KBAB - December, 2012

Change the Weather History Date:

Wednesday, December 12, 2012

  Actual Average Record
Temperature  
Mean Temperature 48 °F -  
Max Temperature 54 °F 55 °F 62 °F (1996)
Min Temperature 41 °F 39 °F 27 °F (2013)
Degree Days  
Heating Degree Days 18    
Moisture  
Dew Point 44 °F    
Average Humidity 86    
Maximum Humidity 100    
Minimum Humidity 56    
Precipitation  
Precipitation 0.02 in - - ()
Sea Level Pressure  
Sea Level Pressure 29.83 in    
Wind  
Wind Speed 12 mph (SSE)    
Max Wind Speed 20 mph    
Max Gust Speed 24 mph    
Visibility 10 miles    
Events Thunderstorm    
Averages and records for this station are not official NWS values.
T = Trace of Precipitation, MM = Missing Value Source: NWS Daily Summary

Daily Weather History Graph

Daily Weather History Graph

Search for Another Location

Airport or City:

Trip Planner

Search our weather history database for the weather conditions in past years. The results will help you decide how hot, cold, wet, or windy it might be!

Date:

Astronomy

Dec. 12, 2012 Rise Set
Actual Time 7:16 AM PST 4:43 PM PST
Civil Twilight 6:46 AM PST 5:13 PM PST
Nautical Twilight 6:12 AM PST 5:46 PM PST
Astronomical Twilight 5:40 AM PST 6:19 PM PST
Moon 6:26 AM PST (12/12) 4:25 PM PST (12/12)
Length of Visible Light 10h 27m
Length of Day
9h 27m
Waning Crescent, 0% of the Moon is Illuminated
Dec 12
Waning Crescent
Dec 13
New
Dec 19
First Quarter
Dec 28
Full
Jan 4
Last Quarter

Hourly Weather History & Observations

Time (PST) Temp. Windchill Dew Point Humidity Pressure Visibility Wind Dir Wind Speed Gust Speed Precip Events Conditions
12:58 AM 48.2 °F - 47.5 °F 97% 29.81 in 10.0 mi SE 15.0 mph - N/A   Mostly Cloudy
1:58 AM 48.0 °F - 47.8 °F 99% 29.79 in 10.0 mi SE 15.0 mph - N/A   Mostly Cloudy
2:18 AM 48.2 °F - 48.2 °F 100% 29.78 in 10.0 mi SE 16.1 mph - N/A   Mostly Cloudy
2:58 AM 48.9 °F - 48.6 °F 99% 29.80 in 10.0 mi SSE 19.6 mph 24.2 mph N/A   Overcast
3:06 AM 50.0 °F - 48.2 °F 94% 29.79 in 7.0 mi SSE 12.7 mph 24.2 mph N/A   Overcast
3:16 AM 50.0 °F - 48.2 °F 94% 29.79 in 10.0 mi SSE 13.8 mph - N/A   Overcast
3:58 AM 48.9 °F - 48.7 °F 99% 29.79 in 10.0 mi SSE 13.8 mph - 0.02 in   Overcast
4:08 AM 48.2 °F - 48.2 °F 100% 29.78 in 10.0 mi SE 12.7 mph - N/A   Overcast
4:18 AM 48.2 °F - 48.2 °F 100% 29.79 in 10.0 mi SSE 12.7 mph - N/A   Overcast
4:58 AM 50.0 °F - 48.2 °F 94% 29.79 in 10.0 mi South 12.7 mph - N/A   Overcast
5:18 AM 48.2 °F - 48.2 °F 100% 29.78 in 10.0 mi SSE 13.8 mph - N/A   Overcast
5:58 AM 48.7 °F - 48.4 °F 99% 29.79 in 10.0 mi SSE 12.7 mph - N/A   Overcast
6:38 AM 48.2 °F - 48.2 °F 100% 29.80 in 10.0 mi SSE 12.7 mph - N/A   Mostly Cloudy
6:58 AM 46.9 °F - 46.8 °F 99% 29.81 in 9.0 mi SSE 11.5 mph - N/A   Mostly Cloudy
7:28 AM 46.4 °F 41.1 °F 46.4 °F 100% 29.81 in 8.0 mi SE 11.5 mph - N/A   Scattered Clouds
7:58 AM 46.2 °F 41.2 °F 46.2 °F 100% 29.82 in 9.0 mi SSE 10.4 mph - N/A   Scattered Clouds
8:58 AM 49.1 °F - 48.7 °F 99% 29.84 in 10.0 mi SSE 12.7 mph - N/A   Scattered Clouds
9:58 AM 51.1 °F - 43.2 °F 74% 29.85 in 10.0 mi South 10.4 mph - N/A   Scattered Clouds
10:58 AM 52.3 °F - 42.4 °F 69% 29.86 in 10.0 mi South 10.4 mph - N/A   Scattered Clouds
11:58 AM 52.0 °F - 41.4 °F 67% 29.86 in 10.0 mi South 8.1 mph - N/A   Mostly Cloudy
12:58 PM 54.7 °F - 40.6 °F 59% 29.83 in 10.0 mi SSE 11.5 mph - N/A   Mostly Cloudy
1:58 PM 53.1 °F - 38.3 °F 57% 29.83 in 10.0 mi South 10.4 mph - N/A   Scattered Clouds
2:58 PM 54.1 °F - 38.8 °F 56% 29.84 in 10.0 mi South 4.6 mph - N/A   Scattered Clouds
3:58 PM 52.5 °F - 39.0 °F 60% 29.84 in 10.0 mi South 4.6 mph - N/A   Scattered Clouds
4:58 PM 47.7 °F - 40.3 °F 76% 29.84 in 10.0 mi South 3.5 mph - N/A   Scattered Clouds
5:58 PM 46.2 °F 42.7 °F 40.5 °F 80% 29.85 in 10.0 mi SE 6.9 mph - N/A   Mostly Cloudy
6:58 PM 45.9 °F 42.9 °F 39.6 °F 79% 29.87 in 10.0 mi East 5.8 mph - N/A   Scattered Clouds
7:58 PM 43.5 °F 41.9 °F 39.7 °F 87% 29.88 in 10.0 mi Variable 3.5 mph - N/A Thunderstorm Scattered Clouds
8:58 PM 47.5 °F - 40.5 °F 77% 29.88 in 10.0 mi East 6.9 mph - N/A   Mostly Cloudy
9:58 PM 45.0 °F 42.6 °F 39.0 °F 80% 29.90 in 10.0 mi North 4.6 mph - N/A   Overcast
10:58 PM 43.3 °F - 38.5 °F 83% 29.91 in 10.0 mi ENE 2.3 mph - N/A   Overcast
11:28 PM 42.8 °F 41.1 °F 37.4 °F 81% 29.90 in 10.0 mi NW 3.5 mph - N/A   Overcast
11:48 PM 41.0 °F 39.0 °F 37.4 °F 87% 29.90 in 9.0 mi NE 3.5 mph - N/A   Partly Cloudy
11:58 PM 41.9 °F - 37.4 °F 84% 29.90 in 10.0 mi NNW 2.3 mph - N/A   Clear